STARLINK-32724

Last updated on Wed Jan 29 2025 00:02:04 GMT+0000 (Coordinated Universal Time)

1 62441U 24251K 25028.50002315 -.01479307 00000+0 -37645-1 0 9992 2 62441 53.1598 66.5651 0001049 73.7819 251.4438 15.42088257 5697
UTC large
Height (km)
Speed (km/s)
/
Latitude / Longitude
Inclination (degrees)
Orbital Period (minutes)
Azimuth
Elevation
Range (km)
Doppler Factor

Next 0 passes for location: London (51.5072 / 0.1276)

Sorry there are no passes over London.